Weather History for Pompano Beach, FL

Change the Weather History Date:

Saturday, May 18, 2013

  Actual Average Record
Temperature  
Mean Temperature 80 °F -  
Max Temperature 84 °F 87 °F 94 °F (1985)
Min Temperature 77 °F 70 °F 58 °F (1951)
Cooling Degree Days 16    
Growing Degree Days 30 (Base 50)    
Moisture  
Dew Point 71 °F    
Average Humidity 76    
Maximum Humidity 88    
Minimum Humidity 65    
Precipitation  
Precipitation 0.08 in - - ()
Sea Level Pressure  
Sea Level Pressure 30.08 in    
Wind  
Wind Speed 8 mph (SE)    
Max Wind Speed 16 mph    
Max Gust Speed 18 mph    
Visibility 10 miles    
Events Rain    
Averages and records for this station are not official NWS values.
T = Trace of Precipitation, MM = Missing Value Source: NWS Daily Summary

Daily Weather History Graph

Daily Weather History Graph

Search for Another Location

Airport:

Trip Planner

Search our weather history database for the weather conditions in past years. The results will help you decide how hot, cold, wet, or windy it might be!

Date:

Astronomy

May. 18, 2013 Rise Set
Actual Time 6:32 AM EDT 8:01 PM EDT
Civil Twilight 6:07 AM EDT 8:26 PM EDT
Nautical Twilight 5:37 AM EDT 8:57 PM EDT
Astronomical Twilight 5:05 AM EDT 9:28 PM EDT
Moon 1:41 PM EDT (5/18) 1:43 AM EDT (5/18)
Length of Visible Light 14h 19m
Length of Day
13h 29m
First Quarter, 55% of the Moon is Illuminated
May 18
First Quarter
May 25
Full
May 31
Last Quarter
Jun 8
New
Jun 16
First Quarter

Hourly Weather History & Observations

Time (EDT) Temp. Heat Index Dew Point Humidity Pressure Visibility Wind Dir Wind Speed Gust Speed Precip Events Conditions
12:17 AM 78.8 °F - 69.8 °F 74% 30.09 in 10.0 mi SSE 9.2 mph - N/A   Mostly Cloudy
12:26 AM 78.8 °F - 69.8 °F 74% 30.09 in 10.0 mi SE 9.2 mph - N/A   Mostly Cloudy
12:53 AM 78.1 °F - 70.0 °F 76% 30.09 in 10.0 mi SE 6.9 mph - N/A   Partly Cloudy
1:53 AM 78.1 °F - 70.0 °F 76% 30.08 in 10.0 mi SSE 6.9 mph - N/A   Scattered Clouds
2:53 AM 78.1 °F - 70.0 °F 76% 30.06 in 10.0 mi SE 6.9 mph - N/A   Partly Cloudy
3:53 AM 78.1 °F - 72.0 °F 81% 30.06 in 10.0 mi SSE 6.9 mph - N/A   Partly Cloudy
4:44 AM 78.8 °F - 73.4 °F 83% 30.06 in 10.0 mi SE 5.8 mph - N/A   Mostly Cloudy
4:53 AM 79.0 °F - 73.0 °F 82% 30.06 in 10.0 mi South 4.6 mph - N/A   Mostly Cloudy
5:03 AM 78.8 °F - 71.6 °F 78% 30.06 in 10.0 mi South 4.6 mph - N/A   Overcast
5:53 AM 77.0 °F - 72.0 °F 84% 30.07 in 10.0 mi Calm Calm - N/A   Clear
6:53 AM 77.0 °F - 73.0 °F 88% 30.09 in 10.0 mi Calm Calm - N/A   Clear
7:53 AM 79.0 °F - 73.0 °F 82% 30.10 in 10.0 mi SE 3.5 mph - N/A   Clear
8:53 AM 82.0 °F 86.7 °F 72.0 °F 71% 30.11 in 10.0 mi ESE 9.2 mph - N/A   Scattered Clouds
9:53 AM 82.0 °F 86.7 °F 72.0 °F 71% 30.12 in 10.0 mi SSE 10.4 mph 18.4 mph N/A   Mostly Cloudy
10:53 AM 80.1 °F 84.5 °F 73.9 °F 81% 30.12 in 10.0 mi ESE 10.4 mph - 0.08 in Rain Light Rain
11:53 AM 82.0 °F 87.9 °F 73.9 °F 76% 30.12 in 10.0 mi SE 12.7 mph - 0.00 in   Mostly Cloudy
12:53 PM 84.0 °F 89.6 °F 72.0 °F 67% 30.10 in 10.0 mi SE 16.1 mph - N/A   Scattered Clouds
1:53 PM 84.0 °F 89.6 °F 72.0 °F 67% 30.10 in 10.0 mi SE 15.0 mph - N/A   Scattered Clouds
3:53 PM 84.0 °F 89.0 °F 71.1 °F 65% 30.07 in 10.0 mi SE 13.8 mph - N/A   Scattered Clouds
4:53 PM 82.9 °F 87.5 °F 71.1 °F 67% 30.05 in 10.0 mi ESE 15.0 mph - N/A   Scattered Clouds
6:53 PM 80.1 °F 83.6 °F 71.1 °F 74% 30.06 in 10.0 mi ESE 9.2 mph - N/A   Scattered Clouds
7:53 PM 79.0 °F - 70.0 °F 74% 30.07 in 10.0 mi ESE 10.4 mph - N/A   Scattered Clouds
8:53 PM 79.0 °F - 69.1 °F 72% 30.09 in 10.0 mi ESE 8.1 mph - N/A   Partly Cloudy
9:53 PM 78.1 °F - 70.0 °F 76% 30.09 in 10.0 mi ESE 12.7 mph - N/A   Clear
10:53 PM 78.1 °F - 69.1 °F 74% 30.10 in 10.0 mi ESE 9.2 mph - N/A   Clear
11:53 PM 78.1 °F - 70.0 °F 76% 30.10 in 10.0 mi ESE 9.2 mph - N/A   Clear